SL-16 R/B, 24298

Orbit data source: Space-Track

SL-16 R/B, 24298 is space debris in LEO originally from a launch on Wed, 04 Sep 1996 UTC launched from the Tyuratam Missile And Space Complex (TTMTR). Debris objects in space refer to the collection of defunct objects orbiting the Earth. Examples of debris include non-operational satellites, rocket bodies, and fragments generated from explosions, collisions, or faulty payload assembly.

Loading next visibility...
Identifier
24298, 1996-051B
Orbit
LEO
Last TLE update
13 hours ago
Origin
Manufacturer
Yuzhnoe
Mission
Spacecraft
Bus & Motor
11S772, Unknown motor
Mass
9,000 kg wet, 9,000 kg dry
Launch date (UTC)
1996-09-04 (29 years ago)
Launch vehicle
Unknown
Launch site
Tyuratam Missile And Space Complex (TTMTR)
Object type
Payload
Rocket body
Debris
Shape & HBR
Cyl, 10.4 m
Radar Cross Section
37.829 m², Large (>1 m²)

Expand to show TLE details & history

TLE from 13 hours ago
0 SL-16 R/B
1 24298U 96051B   25129.34884727 -.00000193  00000-0 -77878-4 0  9994
2 24298  70.7690  99.3106 0017623 229.8538 130.1039 14.12424793478935
Epoch: 2025-05-09T08:22Z
Definitive object data (Epoch: 2025-05-09T08:22:20.404Z)
Latitude
0.00002°
Longitude
106.31932°
Altitude
861.689 km
Speed
7.418 km/s
True Right ascension
06h 37m 14s
True Declination
0° 00' 00"
Sunlit
Object was in daylight at TLE epoch
Visualization TLE readout
Latitude
-4.57102°
Longitude
-73.21627°
Altitude
845.057 km
Speed
7.435 km/s
Apparent Right ascension
18h 07m 04s
Apparent Declination
-21° 16' 25"
Sunlit
Object is in full shadow
Visualization observer readout
Local Sidereal Time
05:19:50
Azimuth
328.148° NNW
Elevation
-68.812°
Doppler factor
1
Orbital elements
Apogee altitude
861.773 km
Perigee altitude
836.3 km
Semi-major axis
7,227.173 km
Eccentricity
0.0017623
Inclination
70.769°
RAAN
99.3106°
Arg. of periapsis
229.8538°
True anomaly
130.25814°
Mean anomaly
130.1039°
Eccentric anomaly
130.18104°
Mean motion
3.53257 °/min
BSTAR
-0.000077878
Orbital period
101.91 mins
Loading maneuver chart data...
Loading SW <> Apogee altitude chart data...
Loading historical data...
Loading historical data...
Loading historical data...
Loading historical data...
Loading historical data...
Loading historical data...
Loading historical data...

SL-16 R/B Visibility forecast

Observer location: undefined°, undefined°

Span
Click to sort rows by Start time (UTC) header in descending order
Start Az.
Max El. time (UTC)
Max El. Az.
Max El.
End time (UTC)
End Az.
7 mins2025-05-09 22:05:35.277Z140.653° SSE2025-05-09 22:09:35.277Z93.465° ESE18.258°2025-05-09 22:12:35.277Z59.836° ENE
9 mins2025-05-09 23:48:35.277Z221.883° SW2025-05-09 23:52:35.277Z283.521° WNW39.881°2025-05-09 23:57:35.277Z13.122° NNE
9 mins2025-05-10 08:44:35.277Z346.692° N2025-05-10 08:48:35.277Z63.796° ENE41.901°2025-05-10 08:53:35.277Z144.581° SSE
5 mins2025-05-10 10:30:35.277Z281.655° WNW2025-05-10 10:32:35.277Z256.737° W16.161°2025-05-10 10:35:35.277Z223.802° SW
|